Olympia, WA

2:35 PM PDT on March 30, 2017 (GMT -0700)
Olympia

Weather History for KOLM - April, 2013

Change the Weather History Date:

Friday, April 12, 2013

  Actual Average Record
Temperature  
Mean Temperature 40 °F 48 °F  
Max Temperature 46 °F 58 °F 82 °F (1951)
Min Temperature 33 °F 37 °F 26 °F (1978)
Degree Days  
Heating Degree Days 25 17  
Month to date heating degree days 201 215  
Since 1 July heating degree days 4497 4573  
Cooling Degree Days 0 0  
Month to date cooling degree days 0 0  
Year to date cooling degree days 0 0  
Moisture  
Dew Point 37 °F    
Average Humidity 81    
Maximum Humidity 96    
Minimum Humidity 65    
Precipitation  
Precipitation 0.19 in 0.12 in 1.05 in (2009)
Month to date precipitation 3.60 1.61  
Year to date precipitation 15.43 20.01  
Sea Level Pressure  
Sea Level Pressure 29.96 in    
Wind  
Wind Speed 8 mph (SW)    
Max Wind Speed 24 mph    
Max Gust Speed 35 mph    
Visibility 8 miles    
Events Rain    
T = Trace of Precipitation, MM = Missing Value Source: NWS Daily Summary

Daily Weather History Graph

Daily Weather History Graph

Search for Another Location

Airport or City:

Trip Planner

Search our weather history database for the weather conditions in past years. The results will help you decide how hot, cold, wet, or windy it might be!

Date:

Astronomy

Apr. 12, 2013 Rise Set
Actual Time 6:28 AM PDT 7:56 PM PDT
Civil Twilight 5:57 AM PDT 8:28 PM PDT
Nautical Twilight 5:18 AM PDT 9:06 PM PDT
Astronomical Twilight 4:37 AM PDT 9:48 PM PDT
Moon 7:33 AM PDT (4/12) 10:42 PM PDT (4/12)
Length of Visible Light 14h 31m
Length of Day
13h 27m
Waxing Crescent, 6% of the Moon is Illuminated
Apr 12
Waxing Crescent
Apr 18
First Quarter
Apr 25
Full
May 2
Last Quarter
May 9
New

Hourly Weather History & Observations

Time (PDT) Temp. Windchill Dew Point Humidity Pressure Visibility Wind Dir Wind Speed Gust Speed Precip Events Conditions
12:54 AM 36.0 °F - 33.1 °F 89% 30.21 in 10.0 mi Calm Calm - N/A   Clear
1:54 AM 34.0 °F - 32.0 °F 92% 30.19 in 10.0 mi Calm Calm - N/A   Clear
2:54 AM 37.0 °F - 34.0 °F 89% 30.17 in 10.0 mi Calm Calm - N/A   Clear
3:54 AM 36.0 °F - 34.0 °F 93% 30.16 in 10.0 mi Calm Calm - N/A   Clear
4:54 AM 37.0 °F - 34.0 °F 89% 30.13 in 10.0 mi Calm Calm - N/A   Clear
5:54 AM 35.1 °F 32.2 °F 33.1 °F 92% 30.11 in 10.0 mi WSW 3.5 mph - N/A   Clear
6:54 AM 35.1 °F 32.2 °F 34.0 °F 96% 30.09 in 9.0 mi West 3.5 mph - N/A   Clear
7:54 AM 37.0 °F 31.6 °F 35.1 °F 93% 30.07 in 10.0 mi WSW 6.9 mph - N/A   Clear
8:54 AM 39.9 °F 35.8 °F 36.0 °F 86% 30.06 in 10.0 mi SW 5.8 mph - N/A   Overcast
9:54 AM 42.1 °F 37.7 °F 36.0 °F 79% 30.03 in 10.0 mi SSW 6.9 mph - N/A   Mostly Cloudy
10:54 AM 44.1 °F 39.5 °F 35.1 °F 71% 30.01 in 10.0 mi SSW 8.1 mph - N/A   Overcast
11:54 AM 45.0 °F 41.8 °F 35.1 °F 68% 29.99 in 10.0 mi SSW 5.8 mph - N/A   Overcast
12:54 PM 46.0 °F 42.5 °F 36.0 °F 68% 29.98 in 10.0 mi SW 6.9 mph - N/A   Overcast
1:47 PM 44.1 °F 40.8 °F 39.9 °F 85% 29.96 in 4.0 mi SW 5.8 mph - 0.03 in Rain Light Rain
1:54 PM 44.1 °F 40.1 °F 39.9 °F 85% 29.96 in 4.0 mi SW 6.9 mph - 0.03 in Rain Light Rain
2:54 PM 44.1 °F 39.0 °F 41.0 °F 89% 29.93 in 6.0 mi SSW 9.2 mph - 0.03 in Rain Light Rain
3:54 PM 44.1 °F 37.7 °F 41.0 °F 89% 29.89 in 6.0 mi SSW 12.7 mph - 0.05 in Rain Light Rain
4:01 PM 44.1 °F 38.6 °F 41.0 °F 89% 29.88 in 6.0 mi SSW 10.4 mph - 0.00 in Rain Light Rain
4:54 PM 45.0 °F 39.3 °F 43.0 °F 93% 29.85 in 6.0 mi SSW 11.5 mph - 0.02 in Rain Light Rain
5:54 PM 45.0 °F 40.1 °F 42.1 °F 90% 29.81 in 7.0 mi SSW 9.2 mph - 0.03 in Rain Light Rain
6:54 PM 45.0 °F 39.7 °F 43.0 °F 93% 29.78 in 5.0 mi South 10.4 mph - 0.01 in Rain Light Rain
7:54 PM 45.0 °F 38.5 °F 42.1 °F 90% 29.75 in 6.0 mi SSW 13.8 mph - 0.00 in   Overcast
8:54 PM 45.0 °F 37.9 °F 43.0 °F 93% 29.75 in 5.0 mi SW 16.1 mph 25.3 mph 0.01 in Rain Light Rain
9:54 PM 44.1 °F 37.1 °F 39.0 °F 82% 29.79 in 10.0 mi SW 15.0 mph 23.0 mph 0.01 in   Overcast
10:01 PM 44.1 °F 35.7 °F 37.9 °F 79% 29.78 in 10.0 mi WSW 20.7 mph 27.6 mph N/A   Overcast
10:54 PM 43.0 °F 37.2 °F 35.1 °F 74% 29.82 in 10.0 mi SW 10.4 mph - N/A   Mostly Cloudy
11:54 PM 42.1 °F 35.2 °F 35.1 °F 76% 29.83 in 10.0 mi SSW 12.7 mph - 0.00 in   Overcast